GW0915 Weather Reports


time (UTC)temp
F
wind
direction
speed
knots
gust
knots
rain 1hr
in
rain 24hr
in
rain mn
in
humidity
%
barometer
mb
20260503224836 58 256 1.7 2.6 0.00 0.00 0.00 38 1006.9
20260503224333 58 247 0.9 2.6 0.00 0.00 0.00 40 1006.8
20260503223831 59 257 2.6 2.6 0.00 0.00 0.00 38 1007.0
20260503223329 59 244 2.6 5.2 0.00 0.00 0.00 38 1007.0
20260503222824 59 252 2.6 4.3 0.00 0.00 0.00 35 1007.0
20260503222323 59 260 2.6 2.6 0.00 0.00 0.00 38 1006.9
20260503221820 59 229 0.9 2.6 0.00 0.00 0.00 39 1006.9
20260503221320 59 237 2.6 2.6 0.00 0.00 0.00 36 1007.0
20260503220815 59 218 1.7 5.2 0.00 0.00 0.00 37 1007.3
20260503220312 60 250 0.9 2.6 0.00 0.00 0.00 38 1007.0
20260503215808 59 237 4.3 5.2 0.00 0.00 0.00 37 1007.2
20260503215306 59 259 1.7 2.6 0.00 0.00 0.00 40 1007.0
20260503214804 59 239 0.9 1.7 0.00 0.00 0.00 41 1006.9
20260503214300 59 230 0.9 2.6 0.00 0.00 0.00 37 1006.9
20260503213758 59 245 0.9 1.7 0.00 0.00 0.00 37 1007.2
20260503213255 59 228 1.7 4.3 0.00 0.00 0.00 40 1006.8
20260503212752 59 171 2.6 5.2 0.00 0.00 0.00 40 1007.3
20260503212250 60 219 1.7 2.6 0.00 0.00 0.00 39 1007.0
20260503211747 59 249 3.5 5.2 0.00 0.00 0.00 39 1007.2
20260503211243 60 240 2.6 2.6 0.00 0.00 0.00 37 1007.5
20260503210738 60 261 0.9 2.6 0.00 0.00 0.00 40 1007.2
20260503210237 60 245 2.6 2.6 0.00 0.00 0.00 35 1007.2
20260503205731 60 231 2.6 2.6 0.00 0.00 0.00 35 1007.3
20260503205228 59 212 0.9 4.3 0.00 0.00 0.00 38 1007.2
20260503204724 60 210 1.7 4.3 0.00 0.00 0.00 37 1007.0
20260503204222 60 213 1.7 4.3 0.00 0.00 0.00 38 1007.2
20260503203719 60 254 1.7 4.3 0.00 0.00 0.00 35 1007.2
20260503203217 61 271 2.6 5.2 0.00 0.00 0.00 35 1007.0
20260503202714 61 254 1.7 5.2 0.00 0.00 0.00 33 1007.3
20260503202212 60 222 2.6 4.3 0.00 0.00 0.00 34 1007.4
20260503201709 61 236 1.7 2.6 0.00 0.00 0.00 37 1007.7
20260503201207 60 186 2.6 2.6 0.00 0.00 0.00 35 1007.5
20260503200703 60 239 1.7 5.2 0.00 0.00 0.00 38 1007.7
20260503200159 60 221 2.6 4.3 0.00 0.00 0.00 35 1007.6
20260503195656 60 269 2.6 2.6 0.00 0.00 0.00 35 1007.9
20260503195153 60 205 2.6 4.3 0.00 0.00 0.00 37 1007.8
20260503194650 60 265 0.9 2.6 0.00 0.00 0.00 37 1008.1
20260503194145 60 257 3.5 4.3 0.00 0.00 0.00 36 1008.1
20260503193643 60 264 2.6 2.6 0.00 0.00 0.00 39 1008.0
20260503193138 61 280 2.6 4.3 0.00 0.00 0.00 37 1008.1
20260503192634 60 250 2.6 4.3 0.00 0.00 0.00 38 1008.4
20260503192130 60 259 1.7 5.2 0.00 0.00 0.00 37 1008.5
20260503191627 60 270 2.6 4.3 0.00 0.00 0.00 33 1008.5
20260503191124 60 261 2.6 7.0 0.00 0.00 0.00 34 1008.4
20260503190621 62 247 2.6 5.2 0.00 0.00 0.00 33 1008.8
20260503190118 61 270 1.7 5.2 0.00 0.00 0.00 34 1008.6
20260503185614 61 261 2.6 5.2 0.00 0.00 0.00 35 1008.7
20260503185114 61 250 2.6 2.6 0.00 0.00 0.00 33 1008.6
20260503184610 60 205 3.5 4.3 0.00 0.00 0.00 38 1008.8
20260503184106 60 273 3.5 5.2 0.00 0.00 0.00 33 1008.9
20260503183603 60 250 2.6 6.1 0.00 0.00 0.00 36 1008.9
20260503183101 60 274 3.5 4.3 0.00 0.00 0.00 35 1009.0
20260503182559 60 257 2.6 4.3 0.00 0.00 0.00 39 1009.1
20260503182057 60 254 1.7 4.3 0.00 0.00 0.00 37 1009.2
20260503181553 61 289 4.3 6.1 0.00 0.00 0.00 35 1009.0
20260503181049 61 293 0.9 4.3 0.00 0.00 0.00 39 1009.0
20260503180547 60 252 2.6 4.3 0.00 0.00 0.00 36 1009.3
20260503180044 60 275 4.3 6.1 0.00 0.00 0.00 37 1009.2
20260503175541 60 282 2.6 4.3 0.00 0.00 0.00 36 1009.3
20260503175039 59 283 3.5 4.3 0.00 0.00 0.00 37 1009.5
20260503174536 60 256 2.6 4.3 0.00 0.00 0.00 36 1009.4
20260503174032 60 296 3.5 4.3 0.00 0.00 0.00 36 1009.5
20260503173527 60 283 3.5 2.6 0.00 0.00 0.00 39 1009.6
20260503173024 60 258 2.6 4.3 0.00 0.00 0.00 37 1009.8
20260503172521 60 273 2.6 4.3 0.00 0.00 0.00 40 1009.7
20260503172018 60 267 2.6 4.3 0.00 0.00 0.00 38 1010.0
20260503171515 59 281 1.7 5.2 0.00 0.00 0.00 38 1009.9
20260503171012 60 254 3.5 5.2 0.00 0.00 0.00 40 1010.0
20260503170508 60 232 2.6 5.2 0.00 0.00 0.00 37 1010.2
20260503150901 55 247 0.9 4.3 0.00 0.00 0.00 40 1011.1
20260503150357 55 267 2.6 2.6 0.00 0.00 0.00 41 1011.3
20260503131250 48 222 0.9 2.6 0.00 0.00 0.00 49 1012.1
20260503130748 48 232 0.9 1.7 0.00 0.00 0.00 50 1012.2
20260503130245 47 236 2.6 2.6 0.00 0.00 0.00 51 1011.8
20260503120211 40 302 0.0 0.0 0.00 0.00 0.00 70 1012.1
20260503110638 37 308 0.0 0.0 0.00 0.00 0.00 78 1011.8
20260503110136 37 309 0.0 0.0 0.00 0.00 0.00 79 1011.7
20260503081452 36 321 0.0 0.0 0.00 0.00 0.00 85 1011.3
20260503080949 35 321 0.0 0.0 0.00 0.00 0.00 85 1011.3
20260503080445 35 321 0.0 0.0 0.00 0.00 0.00 84 1011.3
20260503072922 36 321 0.0 0.0 0.00 0.00 0.00 84 1011.4
20260503072419 36 321 0.0 0.0 0.00 0.00 0.00 84 1011.3
20260503071916 37 321 0.0 0.0 0.00 0.00 0.00 83 1011.2
20260503071413 37 321 0.0 0.0 0.00 0.00 0.00 83 1011.3
20260503070909 37 321 0.0 0.0 0.00 0.00 0.00 84 1011.3
20260503070407 37 321 0.0 0.0 0.00 0.00 0.00 83 1011.6
20260503060332 38 350 0.0 0.0 0.00 0.00 0.00 82 1011.7
20260503054820 37 351 0.0 0.0 0.00 0.00 0.00 83 1011.6
20260503054316 37 351 0.0 0.0 0.00 0.00 0.00 83 1011.6
20260503053814 38 351 0.0 0.0 0.00 0.00 0.00 83 1011.6
20260503053312 37 351 0.0 0.0 0.00 0.00 0.00 82 1011.6
20260503052808 37 352 0.0 0.0 0.00 0.00 0.00 83 1011.7
20260503052306 37 352 0.0 0.0 0.00 0.00 0.00 83 1011.6
20260503051801 37 352 0.0 0.0 0.00 0.00 0.00 82 1011.4
20260503051258 38 352 0.0 0.0 0.00 0.00 0.00 82 1011.7
20260503050754 38 352 0.0 0.0 0.00 0.00 0.00 82 1011.9
20260503050250 38 352 0.0 0.0 0.00 0.00 0.00 82 1011.8
20260503045748 38 352 0.0 0.0 0.00 0.00 0.00 81 1011.7
20260503045246 38 352 0.0 0.0 0.00 0.00 0.00 81 1011.7
20260503044742 38 352 0.0 0.0 0.00 0.00 0.00 80 1011.8
20260503044239 39 352 0.0 0.0 0.00 0.00 0.00 79 1011.9
20260503043737 39 352 0.0 0.0 0.00 0.00 0.00 79 1011.8
20260503043233 39 351 0.0 0.0 0.00 0.00 0.00 78 1011.8
20260503042729 39 351 0.0 0.0 0.00 0.00 0.00 76 1011.8
20260503042226 40 352 0.0 0.0 0.00 0.00 0.00 75 1012.0
20260503041722 40 351 0.0 0.0 0.00 0.00 0.00 74 1011.8
20260503041220 40 351 0.0 0.0 0.00 0.00 0.00 74 1011.7
20260503040717 40 351 0.0 0.0 0.00 0.00 0.00 73 1012.0
20260503040215 41 351 0.0 0.0 0.00 0.00 0.00 73 1011.8
20260503035712 41 351 0.0 0.0 0.00 0.25 0.25 73 1012.1
20260503035209 41 351 0.0 0.0 0.00 0.25 0.25 73 1012.0
20260503034706 41 351 0.0 0.0 0.00 0.25 0.25 73 1011.9
20260503034203 41 351 0.0 0.0 0.00 0.25 0.25 73 1012.0
20260503033700 41 351 0.0 0.0 0.00 0.25 0.25 72 1012.0
20260503033158 41 352 0.0 0.0 0.00 0.25 0.25 73 1012.0
20260503032656 41 352 0.0 0.0 0.00 0.25 0.25 72 1012.1
20260503032154 41 352 0.0 0.0 0.00 0.25 0.25 71 1012.0
20260503031651 41 352 0.0 0.0 0.00 0.25 0.25 72 1012.0
20260503031149 41 352 0.0 0.0 0.00 0.25 0.25 70 1012.0
20260503030645 41 352 0.0 0.0 0.00 0.25 0.25 72 1012.0
20260503030142 41 352 0.0 0.0 0.00 0.25 0.25 71 1012.1
20260503025638 41 353 0.0 0.0 0.00 0.25 0.25 71 1012.3
20260503025137 41 353 0.0 0.0 0.00 0.25 0.25 72 1012.2
20260503024632 41 353 0.0 0.0 0.00 0.25 0.25 69 1012.1
20260503024130 41 353 0.0 0.0 0.00 0.25 0.25 71 1012.1
20260503023627 41 353 0.0 0.0 0.00 0.25 0.25 70 1012.1
20260503023124 41 353 0.0 0.0 0.00 0.25 0.25 68 1012.2
20260503022620 41 353 0.0 0.0 0.00 0.25 0.25 68 1012.3
20260503022114 41 353 0.0 0.0 0.00 0.25 0.25 68 1012.3
20260503021612 41 353 0.0 0.0 0.00 0.25 0.25 67 1012.3
20260503021108 41 353 0.0 0.0 0.00 0.25 0.25 69 1012.3
20260503020605 41 353 0.0 0.0 0.00 0.25 0.25 68 1012.3
20260503015559 41 353 0.0 0.0 0.00 0.25 0.25 69 1012.3
20260503015056 41 353 0.0 0.0 0.00 0.25 0.25 66 1012.2
20260503014552 41 353 0.0 0.0 0.00 0.25 0.25 66 1012.2
20260503014050 41 353 0.0 0.0 0.00 0.25 0.25 64 1012.3
20260503013547 41 353 0.0 0.0 0.00 0.25 0.25 64 1012.2
20260503013045 42 353 0.0 0.0 0.00 0.25 0.25 65 1012.2
20260503012542 42 353 0.0 0.0 0.00 0.25 0.25 60 1012.3
20260503012038 42 353 0.0 0.0 0.00 0.25 0.25 61 1011.9
20260503011535 42 353 0.0 0.0 0.00 0.25 0.25 57 1012.1
20260503011032 41 353 0.0 0.0 0.00 0.25 0.25 59 1012.2
20260503010528 41 353 0.0 0.0 0.00 0.25 0.25 60 1012.3
20260503010026 42 353 0.0 0.0 0.00 0.25 0.25 59 1012.1
20260503005523 42 353 0.0 0.0 0.00 0.25 0.25 60 1012.3
20260503005020 42 353 0.0 0.0 0.00 0.25 0.25 62 1011.9
20260503004516 42 353 0.0 0.0 0.00 0.25 0.25 60 1012.2
20260503004015 42 353 0.0 0.0 0.00 0.25 0.25 58 1012.0
20260503003511 42 353 0.0 0.0 0.00 0.25 0.25 58 1012.0
20260503003009 42 353 0.0 0.0 0.00 0.25 0.25 58 1012.0
20260503002505 42 353 0.0 0.0 0.00 0.25 0.25 58 1012.0
20260503002001 42 353 0.0 0.0 0.00 0.25 0.25 56 1012.1
20260503001458 42 353 0.0 0.0 0.00 0.25 0.25 56 1012.1
20260503000956 43 353 0.0 0.0 0.00 0.25 0.25 54 1011.9
20260503000453 42 353 0.0 0.0 0.00 0.25 0.25 54 1011.9
20260502235950 43 353 0.0 0.0 0.00 0.25 0.25 59 1012.1
20260502235447 43 353 0.0 0.0 0.00 0.25 0.25 55 1011.8
20260502234944 43 353 0.0 0.0 0.00 0.25 0.25 53 1012.0
20260502234440 43 353 0.0 0.0 0.00 0.25 0.25 55 1011.9
20260502233938 43 353 0.0 0.0 0.00 0.25 0.25 54 1011.9
20260502233433 43 353 0.0 0.0 0.00 0.25 0.25 53 1011.7
20260502232930 43 352 0.9 0.9 0.00 0.25 0.25 53 1011.7
20260502232426 43 352 0.9 0.9 0.00 0.25 0.25 54 1011.7
20260502231923 43 353 0.9 2.6 0.00 0.25 0.25 51 1011.9
20260502231421 43 341 1.7 1.7 0.00 0.25 0.25 50 1011.8
20260502230919 43 357 0.9 1.7 0.00 0.25 0.25 50 1011.9
20260502230417 44 328 0.0 0.9 0.00 0.25 0.25 51 1011.9
20260502225915 44 327 0.9 0.9 0.00 0.25 0.25 52 1012.0
20260502225410 44 327 0.9 0.9 0.00 0.25 0.25 56 1011.9